Location: Brompton
(51.4000°N, 0.5333°E)
Time: 18:28:32
(UTC+00:00)

ATLAS 5 CENTAUR R/B - Pass Details

Date: 11 May 2021
Orbit: 516 x 1141 km, 63.3° (Epoch: 02 May)

Event Time Altitude Azimuth Distance (km) Brightness Sun altitude
Rises 20:37:24 0° 312° (NW) 3,228 7.8 -8.3°
Reaches altitude 10° 20:39:45 10° 305° (NW) 2,392 6.2 -8.6°
Maximum altitude 20:44:58 42° 236° (SW) 1,272 3.2 -9.2°
Drops below altitude 10° 20:51:02 10° 168° (SSE) 2,780 4.4 -9.8°
Enters shadow 20:51:47 - 166° (SSE) 3,039 4.6 -9.9°
